STARLINK-1484, 45756

Orbit data source: Space-Track

STARLINK-1484, 45756 is a payload satellite owned by SpaceX/Seattle (US) in LEO that was launched on Sat, 13 Jun 2020 UTC via an FALCON 9 launch vehicle from the Air Force Eastern Test Range (AFETR). Payload-class satellites include a variety of spacecraft equipped with specific instruments for various scientific and technological missions. These include communications satellites like Starlink; space stations such as the ISS; scientific satellites like the Hubble; Earth observation satellites from companies like Planet Labs, Umbra, and HawkEye 360; GPS; miniature CubeSats for education and research; and military/defense satellites.

Loading next visibility...
Identifier
45756, 2020-038AC
Orbit
LEO
Last TLE update
23 hours ago
Origin
Manufacturer
SpaceX/Seattle
Mission
Partially operational Commercial Communications
Bus & Motor
STARLINK, Unknown motor
Mass
260 kg wet, ~248 kg dry
Launch date (UTC)
2020-06-13 (5 years ago)
Launch vehicle
FALCON 9
Launch site
Air Force Eastern Test Range (AFETR)
Object type
Payload
Rocket body
Debris
Shape & HBR
Box + 1 Pan, 8.86 m
Radar Cross Section
13.562 m², Large (>1 m²)

Expand to show TLE details & history

TLE from 23 hours ago
0 STARLINK-1484
1 45756U 20038AC  25181.45064023  .00062363  00000-0  14301-2 0  9992
2 45756  53.0206 213.3419 0002080 305.8968  54.1843 15.42172601280359
Epoch: 2025-06-30T10:48Z
TLE epoch observation values (Epoch: 2025-06-30T10:48:55.315Z)
Latitude
-0.00003°
Longitude
132.35113°
Altitude
439.758 km
Speed
7.65 km/s
True Right ascension
14h 13m 22s
True Declination
0° 00' 00"
Sunlit
Object was in full shadow at epoch
Visualization orbit readout
Latitude
18.95655°
Longitude
142.62°
Altitude
439.356 km
Speed
7.651 km/s
Apparent Right ascension
12h 47m 56s
Apparent Declination
-11° 41' 19"
Sunlit
Object is in full shadow
Visualization observer readout
Local Sidereal Time
21:53:16
Azimuth
293.869° NW
Elevation
-42.325°
Doppler factor
1
Orbital elements
Apogee altitude
441.397 km
Perigee altitude
438.561 km
Semi-major axis
6,818.116 km
Eccentricity
0.00021
Inclination
53.0206°
RAAN
213.3419°
Arg. of periapsis
305.8968°
True anomaly
Unknown
Mean anomaly
54.1843°
Eccentric anomaly
Unknown
Mean motion
3.8552 °/min
Orbital period
93.38 mins
BSTAR
0.0014301
Loading maneuver chart data...
Loading SW <> Apogee altitude chart data...

STARLINK-1484 Visibility forecast

Observer location: undefined°, undefined°

Span
Click to sort rows by Start time (UTC) header in descending order
Start Az.
Max El. time (UTC)
Max El. Az.
Max El.
End time (UTC)
End Az.
5 mins2025-07-01 10:36:51.925Z338.435° N2025-07-01 10:38:51.925Z25.716° NE24.66°2025-07-01 10:41:51.925Z89.076° E
4 mins2025-07-01 12:14:51.925Z271.476° WNW2025-07-01 12:15:51.925Z238.958° WSW30.273°2025-07-01 12:18:51.925Z161.582° S
4 mins2025-07-02 05:01:51.925Z264.97° W2025-07-02 05:03:51.925Z353.805° N34.514°2025-07-02 05:05:51.925Z35.68° NE
|